Wind_Speed
7 7 7 7 6 6 7 8 9 10 11 12 13 15 16 17 17 17 17 16 13 10 8 7 4 2 5 7 6 8 9 9 11 12 12 13 15 15 15 16 16 17 18 17 16 16 16 16 15 14 13 13 13 13 12 11 10 9 7 6 4 4 3 2 2 2 2 3 3 2 3 4 3 5 7 7 8 8 7 7 6 6 7 7 8 9 10 11
8 8 8 8 7 7 8 8 9 10 11 12 13 15 17 18 18 18 16 13 10 9 7 6 4 2 6 8 7 8 10 10 12 14 16 17 18 18 17 16 16 17 18 17 16 15 15 15 15 14 14 13 13 13 13 13 12 11 10 9 8 5 5 4 1 2 3 3 3 2 2 2 2 4 5 4 6 7 6 5 3 4 4 4 5 7 9 10
10 10 9 9 9 9 9 9 10 10 11 13 14 15 18 20 20 18 13 10 9 8 7 6 4 2 6 8 7 9 10 10 14 17 19 19 19 19 18 16 16 16 16 16 15 14 14 14 14 13 13 13 13 12 12 12 12 13 13 13 11 8 6 5 2 2 4 4 3 1 1 2 1 1 4 4 5 5 3 2 1 2 4 3 2 5 8 9
12 11 11 11 10 10 10 10 10 11 12 13 14 16 18 20 20 16 11 9 8 7 6 5 4 2 6 8 7 9 11 11 14 19 20 18 18 18 17 15 15 15 14 13 13 12 12 12 11 12 12 13 13 13 12 11 11 12 13 14 14 11 9 7 4 2 3 3 2 1 2 3 2 1 2 3 3 2 1 2 1 2 3 3 3 3 7 9
13 13 12 12 11 11 11 11 11 11 13 14 14 16 18 21 20 14 9 8 7 6 5 5 4 1 6 8 8 11 13 12 15 19 21 19 17 17 16 14 14 13 12 11 11 11 10 10 10 10 11 12 12 11 11 11 10 11 12 13 14 13 12 10 6 4 2 1 1 0 1 2 2 1 1 1 1 1 2 3 3 3 3 2 3 3 6 9
15 14 13 13 12 12 12 12 11 12 13 14 15 16 18 21 19 11 8 8 7 5 4 4 4 1 6 8 9 13 14 13 15 19 21 19 18 16 15 14 13 11 10 10 10 10 9 9 10 10 11 11 11 10 10 11 10 10 10 11 13 13 12 12 9 6 5 2 1 3 3 3 3 1 1 2 1 2 4 5 5 5 5 3 2 2 4 7
16 16 15 14 14 13 13 13 12 13 14 15 15 16 18 21 17 10 8 8 6 4 4 3 3 2 4 9 11 14 14 12 15 19 20 20 18 16 14 13 12 10 9 9 9 10 9 9 9 11 11 10 9 9 10 11 10 10 9 9 12 12 12 12 10 8 7 5 4 4 5 5 4 3 4 0 1 2 2 5 7 6 5 3 2 2 3 7
17 17 16 16 15 15 14 14 14 14 15 15 15 16 18 21 16 9 7 7 5 4 4 3 2 2 3 9 12 14 13 13 16 18 19 20 18 16 15 13 11 10 9 8 9 10 10 9 9 10 10 9 9 9 11 12 10 9 8 8 12 13 12 12 11 9 8 7 7 6 6 6 5 6 5 1 2 4 3 5 6 6 5 3 2 2 3 7
18 18 17 17 17 16 15 15 15 14 15 15 15 16 19 20 15 8 8 7 5 4 4 3 2 2 3 9 12 13 13 13 15 17 19 20 19 17 16 13 11 10 9 9 9 9 8 8 8 9 9 8 8 10 13 11 8 8 7 7 11 14 13 12 11 10 9 8 8 7 7 7 7 7 5 3 5 6 4 4 5 5 3 2 2 3 4 7
18 18 18 18 17 17 16 16 15 15 15 15 16 17 19 20 13 8 8 7 5 4 4 3 2 3 3 8 12 13 12 11 14 18 20 21 22 19 16 13 11 9 8 8 8 7 5 4 4 6 7 6 7 10 11 9 7 7 8 9 12 14 13 12 12 11 9 7 7 8 7 8 8 6 3 3 7 7 4 3 4 3 2 2 3 4 5 6
18 18 18 18 18 18 17 17 16 15 15 15 16 17 19 19 12 7 8 6 4 3 3 3 2 3 3 6 11 13 12 11 14 18 20 22 22 20 16 13 10 8 7 7 5 4 2 2 2 4 7 6 7 8 7 7 7 8 11 13 14 14 13 11 10 10 8 7 6 8 7 6 6 4 1 3 7 7 5 3 3 3 2 3 4 5 6 7
18 18 18 18 18 17 17 17 16 15 15 15 16 17 19 18 10 7 8 6 4 3 3 2 2 2 3 5 10 13 12 13 14 15 18 20 21 21 19 15 12 9 7 6 3 1 2 3 2 2 5 5 7 8 7 8 9 10 12 15 14 13 10 8 7 8 8 7 6 7 7 5 4 3 2 2 3 5 5 4 3 3 3 3 4 5 6 7
18 18 18 18 17 17 17 17 16 15 14 15 16 17 19 16 9 7 7 5 4 3 3 3 3 3 4 6 10 13 12 13 13 13 16 18 20 22 21 17 15 13 10 7 3 2 3 5 5 4 6 7 8 7 7 9 10 11 13 13 13 11 8 6 6 7 7 7 5 6 6 4 3 4 4 5 4 3 2 2 3 4 4 4 4 5 5 6
16 17 17 17 16 16 16 16 15 13 13 15 15 17 18 13 7 7 6 4 4 4 4 3 3 4 7 7 9 11 11 11 12 12 16 18 18 20 20 19 17 14 10 7 5 3 4 6 6 6 7 8 7 7 8 9 11 13 13 11 10 9 8 7 7 8 7 8 6 4 5 3 3 4 5 6 7 6 3 1 2 3 5 4 4 4 5 6
14 15 15 15 15 15 15 14 13 12 13 14 15 17 16 9 6 6 5 4 4 4 4 4 4 6 8 7 8 9 9 11 12 12 16 19 17 16 17 18 16 14 11 7 6 5 6 7 7 6 7 7 7 8 9 10 12 12 11 10 9 8 8 8 8 7 6 8 7 6 5 4 3 3 4 6 7 7 6 4 2 2 4 4 4 4 4 6
12 12 13 13 13 14 13 13 12 12 13 14 15 16 12 7 6 5 3 3 5 5 4 4 5 7 7 6 8 9 9 11 12 13 16 18 16 15 15 16 17 15 10 8 8 7 7 7 6 7 7 7 7 9 10 9 8 7 8 11 11 10 11 10 9 8 6 7 8 7 6 5 4 3 3 4 6 7 8 7 5 3 3 4 4 4 4 5
11 11 11 12 12 13 12 12 11 11 13 14 15 14 9 6 5 4 3 4 5 5 4 5 7 8 6 6 7 8 9 11 12 13 16 17 17 16 16 17 16 14 10 9 9 7 6 6 5 6 6 7 8 8 8 6 5 7 10 12 13 13 14 13 12 11 7 7 8 8 7 5 3 3 2 4 6 7 7 8 7 6 4 3 4 4 5 5
11 10 11 11 11 12 12 12 11 12 13 14 14 12 8 7 5 4 3 5 6 5 5 6 7 8 7 8 8 8 10 11 12 14 16 19 19 16 16 17 15 13 11 9 7 5 4 4 4 4 5 6 6 6 7 6 7 9 12 13 12 13 14 14 14 12 8 6 7 9 7 3 3 4 2 3 5 6 7 9 9 8 6 4 4 4 4 4
12 11 11 11 12 12 12 12 12 12 13 13 13 10 8 7 6 4 4 6 7 8 8 7 6 7 8 10 10 9 11 12 13 14 15 17 17 16 17 18 16 14 11 8 5 3 3 4 4 3 3 3 1 5 7 7 8 9 11 12 12 14 13 12 11 9 5 4 4 6 5 1 3 4 4 3 4 5 7 9 10 8 7 7 5 4 4 3
13 13 13 12 12 13 12 12 12 12 13 12 11 10 8 7 6 5 5 7 9 9 9 7 6 9 11 12 11 10 11 13 15 14 13 15 16 17 18 17 15 11 8 6 3 2 2 3 4 5 3 2 1 5 7 7 7 8 9 9 10 12 11 9 10 9 4 1 2 0 3 2 3 4 6 6 3 4 6 8 9 8 8 8 8 7 5 3
14 14 14 14 14 13 13 13 13 13 13 12 11 10 8 6 5 4 5 8 9 9 8 7 9 12 12 12 11 10 11 14 15 14 13 15 17 17 16 14 11 8 6 4 2 1 3 3 5 5 1 1 3 6 6 5 6 7 7 8 9 10 9 8 11 12 5 4 4 3 3 2 1 3 7 8 5 3 4 4 6 6 7 8 9 8 7 5
15 15 15 15 15 14 14 13 13 13 12 12 11 9 7 5 4 4 5 7 10 10 8 7 11 12 10 10 11 10 11 13 15 14 15 18 18 16 13 10 7 5 4 2 1 2 3 3 5 3 1 1 1 3 5 4 5 6 7 7 7 7 8 6 8 9 4 2 3 4 3 1 1 5 8 9 7 3 2 1 2 3 4 6 8 9 8 8
14 15 15 16 16 15 14 13 13 13 12 12 10 7 5 4 3 4 5 7 9 9 8 9 12 13 11 11 12 11 11 12 12 15 18 19 17 14 11 8 5 4 3 2 3 4 3 4 3 4 4 2 1 1 3 5 5 6 6 6 4 5 7 6 7 7 5 3 4 3 3 4 5 7 9 10 8 4 3 1 1 1 2 4 6 8 8 8
13 14 15 16 16 15 14 13 13 13 12 11 8 6 5 4 4 5 5 7 8 8 10 12 15 16 13 13 13 11 11 11 13 16 18 17 15 12 8 6 6 6 4 1 2 4 4 3 5 7 3 2 2 1 3 5 6 6 5 5 4 6 6 7 8 6 6 5 4 4 6 6 7 6 7 10 8 6 4 2 1 1 1 3 4 6 7 7
11 12 14 15 15 14 14 13 13 13 12 9 7 5 4 3 4 5 6 7 8 9 11 13 16 17 16 14 13 11 12 12 13 14 14 13 11 8 6 6 7 6 3 1 3 5 4 3 6 7 5 4 2 1 3 6 6 3 2 3 4 6 6 7 8 5 6 4 1 3 4 3 5 5 4 5 5 5 3 2 1 1 0 2 3 4 5 6
10 11 13 13 13 14 14 14 13 12 10 8 6 5 3 3 3 6 7 6 8 10 12 14 15 16 17 14 12 12 12 11 12 13 12 11 9 7 7 7 6 4 2 2 4 5 2 1 3 4 5 4 1 1 4 6 6 3 2 3 4 5 6 8 8 4 4 4 2 3 4 3 5 5 2 1 4 4 3 4 3 3 2 1 0 1 2 3
10 11 12 12 13 14 13 13 13 11 9 7 6 5 4 4 5 7 7 3 7 12 13 14 13 15 16 13 13 12 10 12 14 13 12 12 11 9 8 7 6 2 2 4 6 5 4 5 3 3 3 4 3 2 5 7 5 5 6 6 5 5 7 9 9 4 4 4 4 4 6 6 7 6 3 1 6 5 4 5 5 5 4 3 4 3 4 4
9 10 11 12 12 13 13 13 12 10 8 6 7 6 5 7 7 9 6 2 6 12 13 14 12 13 15 13 13 11 10 13 13 11 12 13 12 11 8 5 5 1 3 6 8 7 7 7 5 5 5 4 3 3 6 7 6 7 10 9 7 7 8 8 8 4 4 4 3 2 4 5 6 7 4 3 7 6 5 6 7 7 6 6 6 6 6 6
8 9 10 11 12 12 12 12 10 9 7 7 8 7 8 9 8 8 3 0 9 13 12 14 13 12 13 13 13 12 13 14 10 10 14 13 13 12 7 4 4 3 3 6 8 7 6 7 8 9 9 7 5 5 6 6 7 9 10 10 8 8 7 7 7 4 5 4 2 2 5 5 3 6 6 6 8 8 7 7 7 8 8 8 8 7 8 8
8 9 10 11 11 12 12 11 10 9 9 10 9 8 9 10 9 7 1 2 11 12 11 14 13 13 14 13 14 14 15 13 10 11 13 12 12 10 7 6 4 2 2 3 4 6 9 9 9 12 11 9 8 7 7 5 7 8 8 10 9 5 4 5 3 4 5 2 2 3 6 7 3 4 5 7 10 10 9 9 9 10 9 9 9 9 10 11
7 8 9 10 11 11 11 10 10 10 11 11 10 9 10 10 8 4 1 6 11 10 12 14 13 13 13 12 14 14 15 13 12 12 12 12 12 9 7 6 4 2 2 2 1 4 7 5 4 10 10 7 8 8 8 7 6 5 7 10 8 4 3 2 3 3 3 0 1 3 2 6 5 4 5 7 10 10 9 9 10 11 11 11 11 11 11 11
7 8 9 10 10 11 10 10 11 12 13 12 10 10 11 10 5 2 3 7 8 9 12 13 13 13 11 10 12 14 14 14 13 12 12 11 10 8 6 5 4 3 3 4 3 0 2 4 6 7 8 6 6 8 7 7 7 5 6 6 4 3 2 2 2 1 1 1 2 2 0 3 5 6 6 6 8 9 8 8 9 9 9 10 11 12 11 10
7 8 9 9 9 10 10 10 12 13 14 12 11 12 11 7 3 2 5 6 5 7 10 12 13 12 11 11 12 13 14 13 13 12 11 11 9 9 8 7 8 8 7 5 4 2 4 6 7 5 5 5 6 8 7 5 6 7 4 3 1 2 3 2 2 2 3 3 4 6 4 3 5 6 6 6 7 8 8 7 7 7 7 8 10 11 11 12
7 8 8 8 9 9 9 11 13 14 14 12 12 14 11 5 3 5 5 4 3 6 8 11 13 12 12 13 12 13 14 12 12 11 11 11 10 9 9 9 9 8 7 6 5 4 4 3 3 3 2 3 7 8 8 7 8 9 5 1 2 3 2 2 3 2 2 2 5 6 4 3 5 6 8 9 8 8 8 7 7 7 7 7 9 10 10 11
6 7 8 8 8 9 10 13 14 15 15 13 15 16 10 5 5 7 5 4 5 5 9 12 12 12 12 13 12 12 13 12 12 13 12 12 11 10 8 8 6 5 6 7 5 5 5 5 4 3 5 6 8 8 8 8 9 8 5 2 3 5 4 3 4 4 2 1 3 5 4 6 7 8 10 10 9 10 8 7 8 7 8 9 10 9 9 11
5 6 6 7 7 9 12 14 14 16 15 14 18 17 9 6 6 5 4 4 5 4 9 10 10 10 11 12 13 13 13 13 12 13 14 12 12 11 9 8 8 7 6 6 5 4 4 4 4 6 9 7 5 5 6 7 8 8 6 5 5 6 7 6 4 4 2 0 3 4 4 7 9 10 13 13 11 11 9 8 9 9 11 12 12 12 12 14
4 4 5 6 7 9 11 12 14 16 15 16 20 16 9 8 6 5 5 5 5 4 7 10 9 8 9 9 11 13 14 14 13 13 14 13 11 12 12 11 9 8 7 6 5 5 6 7 7 8 7 4 4 8 8 8 9 9 8 7 5 5 8 8 3 1 1 0 3 4 5 8 9 8 12 15 14 12 11 11 12 13 15 15 15 15 17 19
2 2 4 5 7 9 10 10 13 16 15 16 20 16 10 7 5 5 5 5 4 5 6 9 8 7 7 6 7 9 11 13 14 14 14 13 11 11 14 14 10 8 7 5 4 4 6 8 9 8 5 5 9 12 9 10 10 10 8 8 7 5 6 7 4 1 1 1 2 3 5 9 13 12 10 13 15 15 15 16 17 18 18 18 18 19 20 22
2 2 3 4 6 9 10 10 11 15 15 17 20 17 9 6 5 4 4 5 5 5 5 8 8 7 7 5 4 7 10 11 13 14 15 14 13 12 14 14 11 9 7 5 4 4 6 8 8 9 9 11 13 11 8 10 10 8 8 9 8 7 6 6 5 3 3 2 1 2 3 6 11 13 10 11 15 18 20 20 21 21 21 21 22 22 23 24
3 2 3 5 7 9 10 10 10 13 14 16 19 16 9 6 5 3 4 6 5 4 4 6 7 8 8 6 5 6 7 10 14 15 14 15 15 13 13 12 10 9 7 5 5 6 8 8 9 12 14 13 10 6 5 8 9 7 7 8 8 6 6 5 6 5 3 3 3 2 2 4 6 7 9 12 16 20 22 22 23 23 23 23 24 25 26 25
3 2 4 6 8 9 9 10 9 11 14 14 15 15 10 7 7 7 7 7 7 7 5 4 4 5 6 5 5 5 6 10 14 13 13 16 16 13 12 12 10 9 7 5 6 7 8 9 13 16 15 12 9 6 4 6 7 5 6 7 6 5 5 4 4 5 5 3 3 4 2 5 5 5 9 14 16 20 22 23 24 24 24 24 25 26 27 27
2 1 3 4 7 9 9 10 10 11 12 12 14 16 12 8 9 10 9 8 8 7 5 4 2 1 2 4 3 4 6 8 10 9 11 14 15 13 13 12 10 8 6 6 6 8 9 11 14 15 13 11 8 6 8 8 7 6 5 5 4 3 4 4 2 3 5 4 4 4 3 5 6 8 10 13 16 20 23 24 24 24 24 25 26 27 28 29
1 2 2 1 4 7 7 9 10 10 11 12 14 15 13 10 9 9 9 8 7 5 3 2 1 2 1 1 1 1 3 6 5 7 9 12 13 12 11 10 9 7 6 6 6 9 11 10 11 11 8 5 2 11 11 8 6 4 4 4 3 2 2 3 2 4 6 6 5 3 2 5 7 8 10 13 16 19 21 23 23 24 25 26 28 29 30 31
1 2 2 1 3 6 6 6 7 8 9 12 14 13 12 12 9 7 8 9 6 4 1 2 3 1 1 2 3 3 2 2 5 7 8 9 10 9 8 7 7 6 6 6 8 10 9 6 6 6 2 4 7 9 6 4 3 1 1 1 2 2 1 2 4 5 6 7 7 4 3 5 7 8 10 13 15 17 19 21 22 24 26 28 30 31 32 32
0 2 2 2 3 5 5 4 4 6 9 12 14 12 10 11 9 8 8 8 6 5 4 2 2 1 2 3 3 3 4 3 5 7 7 7 8 8 8 7 7 5 5 7 9 9 5 2 3 3 2 4 4 3 2 3 4 5 5 4 5 4 3 3 4 5 6 6 7 7 6 8 9 10 11 12 14 17 19 21 23 25 28 30 32 32 32 32
1 1 3 4 4 5 5 3 2 5 8 11 13 12 9 10 10 9 9 8 7 6 4 3 1 2 3 3 2 3 4 4 5 7 8 8 9 9 8 6 5 4 5 8 9 8 4 2 2 2 1 3 3 2 3 5 6 7 7 7 7 6 4 3 3 5 6 5 7 8 8 9 10 10 12 14 16 18 20 22 24 26 29 31 32 31 31 31
3 2 4 6 6 6 5 4 2 3 7 10 11 10 9 11 13 12 10 10 9 6 4 2 2 4 5 5 4 3 3 3 4 6 7 9 9 8 7 4 3 4 5 7 8 7 4 2 2 2 2 2 2 3 5 6 7 7 6 6 6 5 4 3 3 4 4 4 6 6 7 9 11 11 13 16 17 19 21 24 26 28 29 30 31 31 30 29
6 3 3 6 5 5 5 4 4 0 5 8 11 10 8 10 13 14 11 10 9 7 4 3 2 3 3 2 2 2 2 1 3 6 8 9 8 7 5 4 5 5 6 7 7 6 4 3 2 3 3 4 5 7 7 6 6 5 4 4 4 4 4 4 4 3 2 3 5 6 8 11 12 13 15 17 19 20 22 24 26 28 28 29 30 29 28 28
8 6 3 5 6 3 3 3 4 2 2 6 9 9 7 9 13 15 12 9 9 7 5 4 3 1 1 2 3 3 2 2 3 5 6 7 7 7 6 6 6 6 6 6 6 6 5 3 3 2 4 6 8 8 8 7 6 5 4 3 4 4 5 6 5 4 4 5 7 8 11 14 15 16 17 18 19 20 21 23 24 26 27 28 28 28 27 27
10 9 6 6 6 4 1 1 3 3 1 4 7 8 7 9 14 15 12 9 9 8 6 4 4 2 1 3 4 4 4 5 6 7 6 6 7 8 7 7 7 5 6 7 7 8 7 4 4 5 7 9 10 8 7 6 6 6 5 5 5 6 7 7 6 6 7 8 10 12 14 16 17 18 18 18 18 19 20 22 24 24 25 27 27 27 26 26
12 11 9 7 7 6 5 3 2 3 2 5 6 7 7 9 14 15 13 11 10 8 5 4 4 3 3 4 4 4 5 6 7 8 8 8 8 9 8 8 8 7 8 9 9 10 7 5 6 7 8 8 8 7 6 6 7 8 8 9 8 9 9 9 8 8 9 10 12 14 16 18 19 19 17 16 17 20 22 23 24 24 25 26 27 26 24 24
13 13 11 10 9 7 7 6 3 2 2 6 7 9 9 9 12 13 14 13 11 9 7 5 4 4 4 4 4 5 6 6 7 9 10 11 12 13 13 12 11 11 12 12 11 11 9 7 6 5 4 4 5 5 5 5 6 8 9 9 8 9 9 10 10 10 10 11 13 15 18 20 19 18 18 18 20 21 22 23 24 24 24 25 25 24 23 24
Wind_Direction
244 250 255 258 269 283 299 312 323 330 334 340 345 346 346 341 337 333 330 330 332 341 350 356 343 231 177 161 145 149 152 144 138 127 122 127 133 131 120 112 108 105 105 106 106 99 92 88 86 85 82 77 71 66 62 57 51 43 38 36 33 28 28 28 13 33 57 60 64 113 125 122 149 182 192 195 195 197 205 214 229 234 224 207 201 212 208 198
240 245 253 259 266 277 292 305 316 325 331 339 343 345 345 341 337 333 331 331 336 346 350 358 352 232 182 165 153 156 155 144 138 130 123 124 125 124 117 111 108 106 106 107 102 94 87 81 76 75 73 70 66 62 57 53 48 41 35 31 28 18 26 44 48 49 61 65 62 84 103 100 117 172 185 189 201 202 209 219 246 248 232 214 203 214 217 207
241 245 254 261 267 276 287 299 310 321 329 335 338 341 342 341 337 333 331 332 339 345 349 3 356 234 183 170 161 160 158 146 140 135 128 124 122 119 116 112 109 105 105 104 99 91 83 75 69 64 60 57 54 50 47 45 42 39 36 34 33 28 31 45 61 74 78 76 67 73 2 345 25 181 171 160 195 204 209 214 316 264 238 234 235 235 229 223
245 247 253 260 268 275 284 295 305 317 325 331 334 337 339 339 336 332 331 333 340 343 350 9 359 248 185 174 162 159 157 146 142 141 136 131 127 122 119 117 112 107 104 102 97 89 79 71 64 54 49 45 41 38 33 33 35 36 35 33 35 35 36 43 45 51 92 97 75 59 348 339 358 304 184 169 192 200 215 186 182 231 230 224 225 238 237 235
250 252 255 261 268 274 282 291 302 314 321 327 331 334 337 337 335 331 330 333 337 341 353 15 1 282 187 174 158 154 153 149 146 147 145 140 138 131 125 122 116 110 104 101 97 89 79 68 57 48 42 36 34 29 22 20 22 30 33 31 32 32 34 41 41 26 31 93 83 339 316 320 336 316 203 51 131 186 208 194 197 221 241 226 195 204 225 234
255 257 259 264 269 274 280 288 300 310 317 323 328 330 333 335 333 328 328 332 334 340 355 12 1 315 190 175 157 151 152 153 151 151 152 151 148 139 131 127 119 110 102 99 96 87 78 66 54 44 35 31 32 24 17 15 10 17 26 26 25 25 26 31 37 31 11 358 305 268 266 285 314 269 229 27 78 203 211 203 211 229 249 241 187 193 208 218
257 260 263 266 270 275 280 287 297 305 312 320 324 327 330 333 331 324 324 329 331 334 345 353 342 315 198 179 160 153 155 158 154 154 157 159 156 146 137 132 122 113 105 100 93 81 70 60 46 34 26 25 30 26 16 11 6 6 11 14 14 15 17 17 22 28 15 358 330 300 287 285 297 255 232 337 347 257 224 210 224 242 259 256 195 185 186 194
257 261 264 267 270 274 279 285 293 300 308 315 319 323 327 330 328 318 321 325 325 326 329 329 299 294 203 184 169 158 156 158 159 158 160 164 163 154 146 138 130 124 116 107 94 75 61 50 31 19 16 13 21 21 6 1 5 3 358 357 356 358 3 3 5 12 13 5 347 328 307 289 279 260 251 267 283 269 239 214 229 249 268 281 230 200 176 182
256 260 263 267 270 274 278 283 289 295 303 310 315 319 324 328 324 310 318 320 319 318 317 319 271 259 205 187 180 167 159 159 164 165 164 165 165 160 153 145 140 135 124 116 98 75 60 40 14 5 8 9 15 12 2 3 12 6 355 341 336 341 346 347 350 356 4 6 356 345 320 296 279 277 284 268 256 259 239 209 222 245 270 284 253 223 188 175
255 258 261 265 268 272 276 281 286 291 298 305 310 316 321 324 319 304 314 316 312 310 312 314 254 242 209 188 185 177 170 168 170 171 170 167 165 163 158 153 151 145 133 123 108 87 67 23 359 360 2 6 9 6 6 12 12 357 346 337 331 331 335 337 338 341 351 359 358 352 330 308 296 301 319 244 248 259 246 204 211 235 258 252 243 229 201 174
255 257 259 262 265 269 272 277 281 286 293 299 305 312 318 321 314 299 311 312 302 303 305 300 233 234 214 183 182 180 178 175 171 172 175 172 170 167 163 161 160 158 147 135 123 113 104 344 330 350 351 355 0 359 359 352 338 330 331 334 333 331 335 340 333 327 335 346 355 356 345 327 317 328 352 228 237 249 249 224 213 219 232 239 234 223 205 184
254 256 258 260 262 265 268 273 276 282 288 293 301 308 315 318 308 296 310 308 291 284 278 261 209 212 194 169 176 183 184 178 174 177 181 179 176 175 172 170 172 177 176 163 149 155 215 257 255 314 328 330 343 341 329 322 319 322 327 329 331 334 344 350 337 323 323 327 344 1 10 15 7 13 9 298 252 248 250 239 219 211 218 238 240 227 211 202
254 256 257 259 260 262 265 268 272 277 282 289 297 305 313 315 301 297 309 301 276 254 248 233 204 187 168 163 174 181 180 180 187 191 189 184 180 180 177 176 182 188 189 177 175 263 278 263 239 259 298 306 325 322 308 308 310 318 323 320 321 333 354 2 346 336 323 314 326 357 17 31 31 36 30 16 360 326 288 252 228 213 214 231 247 236 217 214
255 255 256 257 258 260 262 265 268 272 277 286 295 304 310 309 293 298 307 291 259 238 232 219 206 181 164 159 166 175 176 180 192 194 189 187 185 182 178 180 186 190 190 179 180 228 286 276 249 253 279 290 303 300 292 293 297 303 307 309 314 328 349 352 340 339 319 304 306 331 357 360 355 26 36 32 26 16 11 326 241 224 220 231 249 243 220 214
255 254 254 254 255 256 258 261 263 267 275 284 293 303 307 300 286 297 302 275 246 229 217 206 201 178 163 152 152 168 178 179 187 187 183 188 190 186 183 184 189 194 194 188 196 227 263 265 254 251 259 271 280 280 282 287 294 298 303 313 319 322 333 336 335 338 309 290 289 297 331 344 320 341 15 26 29 23 16 7 320 254 235 236 243 249 235 224
255 253 250 249 250 251 253 255 258 265 273 283 293 301 301 287 283 292 285 254 233 217 200 187 174 162 156 155 151 153 166 175 180 177 178 186 188 186 187 188 194 200 197 194 203 216 237 244 245 245 244 251 261 272 284 295 306 315 326 330 328 325 325 326 332 338 310 286 291 291 309 335 312 305 340 358 14 19 16 9 355 331 276 253 245 245 240 232
253 249 246 245 244 245 248 250 255 263 272 283 292 297 290 272 278 277 250 226 219 207 187 176 164 154 149 156 149 138 151 169 172 169 172 176 177 181 186 188 195 197 184 183 188 193 221 234 231 235 236 237 246 267 287 314 341 339 336 328 325 324 320 320 326 332 316 296 304 300 308 327 302 302 334 340 357 14 18 15 6 353 328 288 264 249 243 237
250 245 242 241 240 242 245 248 255 263 273 283 289 288 273 264 274 257 213 203 206 190 173 174 162 153 150 148 146 139 149 161 163 165 170 169 170 175 176 175 180 177 169 172 174 185 223 224 218 235 240 233 241 269 290 331 335 322 319 313 314 318 319 321 324 323 309 297 308 306 317 341 281 292 326 349 358 6 14 21 20 9 356 336 306 284 267 249
248 243 240 239 239 241 244 249 256 264 273 281 283 275 260 259 261 236 204 191 192 180 170 172 158 155 157 147 146 149 151 153 153 157 165 167 167 166 162 162 165 168 167 169 176 193 211 218 224 219 198 196 269 303 306 318 307 300 304 304 310 320 332 338 332 327 305 297 322 316 323 326 239 275 297 314 350 2 16 26 29 26 20 10 360 346 321 292
247 243 240 239 240 242 245 250 257 264 271 275 271 262 254 257 256 235 203 184 187 179 171 176 165 157 152 140 138 142 144 147 149 150 157 163 163 161 161 162 164 167 162 161 179 190 217 234 198 157 141 138 291 297 301 299 291 295 297 301 312 322 341 355 355 3 8 38 76 301 286 270 230 259 288 295 332 16 23 28 29 37 44 37 31 26 15 358
246 243 241 240 241 243 247 251 256 261 266 265 259 255 255 263 266 239 201 187 186 179 176 178 161 153 147 139 138 139 144 152 154 154 158 164 164 164 164 160 158 157 141 141 172 221 260 227 137 122 100 309 259 267 281 283 289 303 300 297 307 321 339 359 5 10 32 109 130 189 246 308 294 245 272 286 300 352 16 31 30 36 52 54 47 44 42 36
245 241 240 241 241 244 247 249 252 256 257 255 252 252 256 266 260 229 207 195 190 190 195 176 157 155 147 140 141 139 146 156 161 163 163 164 164 161 157 147 141 140 124 108 25 306 255 164 109 112 240 272 254 263 284 290 295 313 321 307 302 325 339 353 4 1 7 132 166 211 238 328 321 237 248 271 280 295 310 40 44 32 51 56 53 51 47 41
244 239 239 239 240 243 244 243 246 248 248 247 248 248 251 253 231 215 209 198 194 200 200 177 166 165 150 138 136 129 137 149 156 161 160 161 159 151 144 136 131 124 96 46 357 301 235 143 140 206 219 248 223 221 294 306 306 305 314 314 317 343 341 342 356 346 324 281 225 236 282 309 301 259 250 270 278 271 254 249 17 33 55 41 45 49 41 35
243 237 236 235 237 238 236 236 238 240 241 241 240 239 238 229 217 216 210 195 186 183 182 176 173 168 156 146 138 129 137 141 142 150 154 156 151 143 139 137 131 110 81 29 314 275 232 190 211 216 239 278 227 221 310 325 323 300 295 311 328 347 348 346 352 337 308 293 239 267 310 319 316 290 265 274 274 259 238 224 18 44 70 40 45 42 29 23
240 234 232 230 231 230 228 229 230 233 235 234 229 225 219 210 214 212 199 187 178 170 170 169 168 168 162 151 143 141 144 143 142 146 150 151 147 146 146 143 140 119 85 260 279 279 243 224 234 238 262 267 239 305 1 349 336 319 324 332 320 330 336 333 344 332 305 319 260 278 300 322 333 324 291 269 246 234 213 137 113 211 140 70 57 26 6 4
237 232 227 225 224 221 222 223 224 227 227 226 221 206 192 188 196 188 178 181 185 173 161 158 162 168 163 151 148 149 150 155 158 154 153 156 158 162 158 149 148 129 71 304 295 295 272 285 274 264 262 244 234 358 21 351 335 352 1 330 311 311 312 316 328 319 287 317 335 272 252 255 306 308 308 213 180 195 173 134 175 219 217 189 168 311 310 323
237 230 222 219 217 216 219 219 220 220 217 218 205 183 174 177 176 170 157 154 185 176 168 165 164 166 163 159 157 152 152 164 165 162 161 163 166 166 164 160 153 130 341 308 310 317 325 317 292 270 262 236 234 317 355 338 338 8 347 321 307 308 317 316 315 294 255 279 299 278 247 248 275 279 287 187 167 180 189 176 196 212 206 212 228 247 260 272
237 228 220 217 216 215 216 215 215 213 209 205 187 172 174 172 163 163 152 104 167 173 177 179 173 171 171 173 170 154 143 151 157 163 164 166 172 171 168 169 172 207 293 293 308 318 310 289 250 240 251 237 242 303 330 327 333 348 342 330 307 301 317 315 303 278 221 242 292 299 235 229 259 264 256 200 179 181 207 210 213 220 220 226 240 255 265 270
237 228 221 218 217 216 214 212 209 203 194 185 178 173 172 169 162 165 167 139 168 170 178 181 178 177 175 176 174 160 149 152 156 164 166 170 178 178 177 180 195 223 270 289 306 321 304 266 235 231 235 227 234 280 305 320 327 328 337 340 320 301 317 324 303 250 190 202 197 188 217 211 255 262 236 204 191 192 216 231 234 236 236 239 249 261 271 275
239 229 223 220 219 216 214 211 203 191 181 175 175 172 169 169 166 166 182 181 172 173 179 180 181 181 176 173 172 167 165 165 164 168 171 172 176 184 192 196 213 239 271 291 324 353 334 296 243 222 224 226 233 262 283 296 318 324 328 334 324 292 306 360 356 184 170 190 167 167 226 222 249 283 237 209 202 204 224 243 253 252 249 250 257 268 275 275
242 233 226 221 219 216 213 209 195 183 179 177 174 171 170 170 171 174 188 175 176 180 181 182 187 188 182 174 171 171 173 173 173 178 180 177 178 189 197 204 234 273 265 235 284 4 350 330 225 203 207 213 226 255 281 282 291 319 332 329 324 283 260 14 52 135 147 322 148 107 200 212 224 266 244 215 207 212 233 254 261 259 256 257 262 269 273 275
245 238 228 222 220 216 213 204 189 182 182 179 173 169 168 170 187 212 163 162 173 180 180 184 188 185 180 174 173 174 174 176 178 181 185 189 195 204 214 227 238 262 268 248 245 117 90 88 112 157 181 188 219 252 276 273 262 288 334 342 341 358 344 314 3 64 247 269 192 162 154 221 238 251 240 218 212 221 244 261 258 253 257 262 264 267 271 282
248 241 230 225 221 216 212 198 188 186 183 179 170 167 167 171 199 185 149 148 161 175 183 190 187 181 182 183 180 180 180 181 183 185 193 206 216 223 239 252 252 260 266 260 258 193 141 117 114 140 177 196 229 251 266 263 256 274 312 8 344 52 54 304 293 310 278 261 217 223 262 273 249 243 229 210 212 228 242 251 247 244 253 262 264 268 279 295
249 241 230 225 218 212 205 194 191 189 183 178 168 166 170 173 144 122 122 118 132 163 182 192 193 193 196 196 190 189 195 195 196 200 207 218 226 233 248 259 258 252 238 233 239 212 195 182 171 188 220 238 249 256 262 264 265 267 267 318 247 184 125 258 246 244 249 215 207 222 253 257 225 222 217 208 214 226 231 233 233 238 246 254 264 275 291 305
247 238 229 222 215 208 198 194 194 190 183 176 169 169 171 163 125 104 96 89 96 145 175 187 200 210 212 212 208 206 212 213 212 214 218 225 230 231 240 242 226 204 199 211 222 225 245 248 223 252 298 290 269 260 256 256 259 256 241 241 227 201 204 242 239 243 229 156 204 218 237 241 223 217 217 214 218 219 218 224 227 236 246 254 264 275 289 301
244 236 227 217 211 205 200 199 196 190 185 177 173 171 160 132 115 88 80 85 80 126 171 177 191 210 220 227 226 224 225 224 224 220 217 223 228 226 227 220 202 191 197 214 223 230 254 249 242 290 303 294 280 276 266 254 250 246 231 222 209 201 212 223 234 240 219 191 236 224 239 237 224 223 225 222 219 215 217 226 232 239 247 254 263 268 279 292
237 226 219 210 202 197 199 202 197 191 187 182 178 170 144 121 107 73 71 82 75 104 161 169 174 196 212 221 230 234 231 228 228 222 213 212 217 219 219 212 202 197 203 217 226 235 261 269 279 302 298 263 297 306 281 250 245 246 234 219 214 210 211 212 213 146 108 283 247 231 234 223 211 218 229 228 221 216 222 230 235 242 246 253 261 269 283 295
198 198 207 205 194 190 193 198 198 193 188 186 183 171 150 131 103 73 78 84 86 107 156 172 167 173 183 190 215 226 220 215 215 214 207 201 202 209 210 207 200 194 201 215 219 237 276 291 298 310 292 263 302 308 274 235 237 245 236 224 226 226 208 202 205 150 126 236 275 258 242 229 224 229 242 240 226 218 225 232 237 243 249 255 264 276 287 293
124 141 179 182 181 185 189 190 196 195 190 191 190 181 169 149 111 86 98 101 97 109 159 175 158 145 147 143 172 204 210 206 200 200 199 196 195 198 202 202 195 190 199 218 231 261 293 297 297 307 304 297 304 302 256 222 223 234 234 227 225 224 212 205 217 212 174 188 259 289 272 249 242 245 258 253 232 225 230 235 240 246 251 258 268 279 287 290
116 126 157 163 171 179 185 185 190 195 195 198 198 194 188 172 152 131 135 130 119 121 152 167 156 149 145 127 120 160 191 193 185 185 191 195 193 190 195 198 194 196 206 227 252 287 300 291 287 300 308 307 303 291 251 223 218 217 212 207 201 200 202 208 225 225 193 177 164 153 269 254 245 253 249 240 235 233 236 240 246 252 257 265 276 285 291 297
122 141 167 171 178 179 179 176 178 192 199 205 206 203 197 182 169 162 150 138 130 125 124 137 155 165 161 149 128 123 141 166 177 183 192 197 194 187 191 199 204 213 224 247 272 293 300 292 294 304 311 310 293 264 233 206 194 179 177 184 176 179 195 198 215 215 200 201 183 171 230 245 243 260 243 237 241 241 241 246 251 257 264 273 284 292 299 305
127 149 167 177 185 181 175 168 168 184 199 210 211 205 201 184 164 162 158 145 131 122 111 115 126 160 174 166 157 138 135 149 171 189 191 193 196 194 197 205 216 229 248 277 289 298 304 300 301 306 314 316 291 223 183 169 157 137 136 148 145 163 196 185 179 213 209 231 232 209 238 254 255 264 251 246 251 248 249 254 258 266 274 282 290 296 303 306
155 161 146 150 182 178 168 162 167 179 194 210 210 205 203 190 168 166 170 162 146 128 112 89 32 344 269 212 280 231 151 142 158 180 176 180 190 196 201 212 228 245 269 288 298 307 308 302 299 301 318 346 154 164 162 156 149 139 128 124 113 99 158 189 243 267 236 233 233 216 241 255 259 267 259 257 260 258 259 263 268 277 283 288 294 299 303 305
221 189 161 126 169 173 157 149 165 179 192 207 208 202 204 198 183 178 178 171 164 164 184 319 331 323 272 289 302 298 255 173 166 172 171 176 186 193 207 225 242 259 277 294 311 318 310 292 285 288 333 89 134 158 166 167 178 247 339 31 8 17 31 248 265 259 235 233 231 219 242 266 277 286 275 269 269 269 273 277 281 287 290 294 298 300 303 304
285 208 199 170 167 161 138 128 162 183 192 204 202 193 200 206 196 182 178 177 184 202 223 268 312 322 308 298 285 280 283 251 196 189 193 196 197 205 223 237 251 270 294 315 331 338 330 292 276 265 179 144 168 201 261 260 269 298 314 325 328 333 331 304 279 249 236 240 235 233 262 288 295 296 287 284 284 284 288 291 293 295 296 298 299 301 303 303
233 198 191 174 154 142 126 102 157 192 194 199 196 189 198 211 202 185 181 185 190 205 221 227 283 324 311 300 277 252 253 245 224 216 212 206 204 211 223 235 257 291 316 330 340 347 339 295 276 281 241 179 181 220 281 290 303 310 309 313 321 327 327 319 289 250 238 242 243 248 271 291 299 300 296 294 294 294 296 295 295 295 295 296 298 300 302 303
231 211 179 169 147 125 110 73 57 198 197 191 184 180 192 208 203 190 184 187 191 203 214 220 284 312 300 283 264 237 227 236 232 220 209 206 209 214 223 239 275 299 314 326 334 336 320 284 260 280 285 235 222 263 283 295 304 307 312 317 318 324 328 311 278 246 229 241 255 267 285 299 307 306 300 298 297 296 296 294 294 294 295 297 299 301 303 305
227 226 193 181 161 115 90 61 38 327 206 194 183 176 185 202 198 188 184 189 196 201 208 233 278 315 318 290 271 252 249 257 218 203 202 207 213 221 234 262 286 291 301 313 317 314 302 280 258 267 276 265 263 277 291 302 309 310 318 318 308 308 310 302 285 267 258 270 279 295 306 311 314 312 306 303 299 296 295 294 295 296 298 300 301 302 304 306
220 225 221 196 187 151 83 46 20 10 213 205 197 191 193 197 191 186 186 196 208 214 229 257 261 268 73 43 358 331 295 294 256 226 222 223 230 241 252 266 280 285 290 292 288 288 286 260 239 262 278 273 272 279 289 298 310 313 305 293 291 289 290 292 288 284 300 307 310 317 319 318 318 315 310 304 299 298 298 298 298 299 300 300 301 302 303 304
220 226 227 213 212 220 234 4 359 351 259 219 212 206 200 193 192 192 191 197 212 224 236 241 224 213 287 319 330 329 310 304 291 274 272 266 255 255 258 262 268 274 285 282 270 275 280 254 252 286 286 276 274 277 285 298 308 304 285 271 274 277 275 275 275 283 297 306 310 315 319 319 317 313 310 306 304 306 305 304 302 302 301 300 300 302 304 303
220 223 224 222 222 229 241 258 309 330 260 225 213 202 193 190 192 197 201 201 209 218 216 210 214 234 274 288 299 305 300 299 292 285 291 291 280 274 272 267 261 263 280 285 272 267 269 268 284 296 288 275 273 274 283 299 302 288 275 269 270 268 264 264 269 278 289 298 307 314 317 318 316 313 311 309 311 312 312 309 307 305 304 302 303 306 307 305
221 222 224 228 229 231 239 244 265 309 234 209 200 188 185 187 187 193 199 196 194 198 195 201 224 236 249 263 281 294 296 300 300 296 294 293 290 286 281 274 268 270 281 288 277 258 254 271 289 289 273 269 271 273 287 302 294 279 275 274 269 262 265 271 275 280 291 302 311 316 317 317 314 312 312 314 318 320 318 315 312 310 308 306 307 310 309 308
Height
3188 3188 3189 3189 3189 3189 3188 3188 3188 3188 3187 3187 3186 3186 3185 3184 3183 3181 3180 3179 3178 3177 3176 3175 3175 3174 3175 3175 3176 3176 3177 3178 3178 3179 3179 3179 3179 3179 3180 3181 3181 3180 3181 3181 3182 3182 3182 3182 3182 3182 3181 3181 3180 3180 3179 3179 3178 3178 3178 3178 3178 3178 3178 3178 3178 3178 3179 3179 3179 3179 3180 3180 3180 3180 3181 3182 3182 3182 3182 3182 3182 3183 3183 3184 3184 3184 3184 3185
3188 3188 3188 3188 3188 3188 3188 3188 3188 3187 3187 3187 3186 3185 3184 3183 3182 3181 3179 3178 3177 3176 3176 3175 3174 3174 3174 3175 3176 3176 3177 3178 3178 3179 3180 3180 3180 3180 3181 3182 3182 3181 3181 3182 3182 3183 3183 3183 3183 3183 3182 3182 3181 3181 3180 3180 3179 3179 3179 3179 3179 3179 3179 3179 3179 3179 3179 3179 3179 3180 3180 3180 3181 3181 3181 3182 3182 3182 3182 3182 3183 3183 3184 3184 3184 3184 3185 3185
3187 3187 3187 3187 3187 3187 3187 3187 3187 3187 3187 3186 3186 3185 3184 3183 3181 3180 3179 3178 3177 3176 3175 3175 3174 3174 3174 3175 3176 3176 3177 3178 3179 3180 3180 3181 3181 3181 3181 3182 3183 3183 3183 3183 3183 3183 3183 3184 3184 3184 3183 3183 3183 3182 3181 3181 3181 3180 3179 3179 3180 3180 3179 3179 3179 3179 3179 3179 3180 3180 3180 3181 3181 3181 3181 3182 3182 3182 3183 3183 3183 3183 3184 3184 3185 3184 3185 3185
3186 3186 3186 3187 3187 3187 3187 3187 3186 3186 3186 3186 3185 3184 3183 3182 3180 3179 3178 3177 3177 3176 3175 3175 3174 3174 3174 3175 3176 3176 3177 3178 3179 3180 3181 3181 3182 3182 3182 3183 3183 3184 3184 3184 3184 3184 3184 3184 3184 3184 3184 3184 3184 3183 3183 3182 3182 3181 3181 3180 3180 3180 3180 3180 3180 3179 3179 3179 3180 3180 3181 3181 3181 3181 3181 3181 3182 3182 3183 3183 3183 3183 3184 3184 3184 3184 3185 3185
3185 3185 3185 3186 3186 3186 3186 3186 3186 3185 3185 3185 3184 3183 3183 3181 3180 3179 3178 3177 3176 3176 3175 3175 3174 3174 3174 3175 3176 3176 3178 3179 3180 3180 3181 3182 3182 3182 3183 3183 3184 3184 3185 3185 3185 3185 3185 3185 3185 3185 3185 3185 3184 3184 3184 3183 3183 3182 3182 3182 3182 3181 3181 3180 3180 3180 3180 3180 3180 3180 3180 3180 3181 3181 3181 3181 3181 3182 3182 3183 3183 3183 3184 3184 3184 3184 3184 3185
3184 3184 3184 3184 3185 3185 3185 3185 3185 3185 3184 3184 3183 3183 3182 3181 3179 3178 3177 3177 3176 3175 3175 3175 3174 3174 3174 3175 3176 3177 3178 3179 3180 3181 3181 3182 3182 3183 3183 3184 3184 3185 3186 3186 3186 3186 3185 3185 3185 3185 3186 3185 3185 3185 3185 3184 3184 3183 3183 3182 3182 3182 3182 3181 3180 3180 3180 3180 3180 3180 3180 3180 3181 3181 3181 3181 3181 3182 3182 3183 3183 3183 3183 3184 3184 3184 3185 3185
3182 3183 3183 3183 3183 3184 3184 3184 3184 3184 3183 3183 3183 3182 3181 3180 3179 3178 3177 3176 3176 3175 3175 3175 3174 3174 3174 3175 3176 3177 3178 3179 3180 3181 3181 3182 3183 3183 3184 3184 3185 3185 3186 3186 3186 3186 3186 3186 3186 3186 3186 3186 3186 3185 3185 3185 3184 3184 3183 3183 3183 3183 3182 3182 3181 3180 3180 3180 3180 3180 3180 3180 3180 3180 3180 3181 3181 3182 3182 3183 3183 3183 3183 3184 3184 3185 3185 3185
3181 3181 3182 3182 3182 3182 3183 3183 3183 3183 3182 3182 3182 3181 3180 3179 3178 3177 3176 3176 3175 3175 3174 3174 3174 3174 3174 3175 3176 3177 3178 3179 3180 3181 3181 3182 3183 3184 3184 3185 3185 3186 3186 3187 3187 3186 3186 3186 3186 3186 3186 3186 3186 3186 3186 3185 3185 3184 3184 3184 3184 3183 3183 3182 3182 3181 3180 3180 3180 3180 3180 3180 3180 3180 3180 3181 3181 3181 3182 3182 3183 3183 3183 3183 3184 3185 3185 3185
3179 3180 3180 3181 3181 3181 3181 3182 3182 3182 3182 3181 3181 3180 3179 3178 3177 3177 3176 3175 3175 3174 3174 3174 3174 3174 3174 3174 3176 3177 3178 3179 3180 3181 3181 3182 3183 3184 3185 3185 3186 3186 3186 3187 3187 3187 3187 3187 3186 3186 3187 3187 3187 3186 3186 3185 3185 3184 3184 3184 3184 3183 3183 3183 3182 3181 3181 3180 3180 3180 3180 3180 3179 3179 3179 3180 3180 3181 3181 3182 3182 3182 3183 3183 3184 3184 3185 3186
3177 3178 3179 3179 3180 3180 3180 3180 3180 3181 3180 3180 3180 3179 3179 3178 3177 3176 3175 3175 3174 3174 3174 3173 3173 3173 3173 3174 3175 3176 3177 3178 3179 3180 3181 3182 3183 3184 3185 3186 3186 3186 3187 3187 3187 3187 3187 3187 3187 3187 3187 3187 3187 3187 3186 3185 3185 3185 3185 3184 3184 3183 3183 3183 3182 3182 3181 3181 3180 3180 3180 3180 3179 3179 3179 3179 3179 3180 3180 3181 3182 3182 3182 3183 3183 3184 3185 3186
3176 3176 3177 3178 3178 3178 3179 3179 3179 3179 3179 3179 3179 3178 3178 3177 3176 3175 3175 3174 3174 3173 3173 3173 3173 3173 3173 3174 3175 3176 3177 3178 3179 3180 3181 3182 3183 3184 3185 3186 3186 3187 3187 3188 3188 3188 3188 3187 3187 3187 3187 3187 3186 3186 3186 3186 3185 3185 3185 3184 3184 3183 3183 3183 3182 3182 3182 3181 3181 3181 3180 3180 3179 3179 3179 3179 3178 3179 3180 3181 3181 3182 3182 3182 3183 3184 3185 3186
3174 3174 3175 3176 3176 3177 3177 3177 3178 3178 3178 3178 3178 3177 3177 3176 3175 3175 3174 3173 3173 3173 3173 3172 3172 3172 3173 3173 3174 3176 3176 3177 3178 3179 3180 3182 3183 3184 3184 3185 3186 3187 3187 3188 3188 3188 3188 3187 3187 3187 3187 3187 3186 3186 3186 3186 3185 3185 3184 3184 3184 3183 3183 3183 3182 3182 3182 3182 3182 3181 3181 3180 3180 3180 3179 3179 3178 3178 3179 3180 3181 3181 3182 3182 3183 3184 3185 3186
3172 3173 3173 3174 3175 3175 3175 3176 3176 3177 3177 3177 3176 3176 3175 3175 3174 3174 3173 3173 3173 3172 3172 3172 3172 3172 3172 3173 3174 3175 3176 3177 3178 3179 3180 3181 3182 3183 3184 3185 3185 3186 3187 3188 3188 3188 3188 3188 3188 3188 3188 3187 3186 3186 3186 3186 3185 3185 3184 3184 3183 3183 3183 3183 3183 3182 3182 3182 3182 3182 3181 3181 3180 3180 3180 3179 3179 3179 3179 3180 3180 3181 3182 3182 3183 3184 3184 3185
3170 3171 3171 3172 3173 3173 3174 3174 3175 3175 3175 3175 3175 3175 3174 3174 3173 3173 3173 3172 3172 3172 3172 3171 3171 3172 3172 3173 3173 3175 3176 3177 3177 3178 3179 3180 3181 3182 3184 3184 3185 3186 3187 3188 3188 3188 3188 3188 3188 3188 3188 3187 3186 3186 3186 3186 3185 3185 3184 3184 3183 3183 3183 3183 3183 3183 3182 3182 3182 3182 3182 3181 3181 3181 3180 3180 3180 3179 3179 3180 3180 3181 3182 3182 3183 3183 3184 3185
3168 3169 3170 3170 3171 3172 3172 3173 3173 3174 3174 3174 3174 3174 3173 3173 3172 3172 3172 3171 3171 3171 3171 3171 3171 3171 3172 3172 3173 3174 3175 3176 3176 3177 3178 3180 3181 3182 3184 3184 3185 3186 3187 3187 3188 3188 3188 3187 3187 3187 3188 3187 3186 3186 3186 3186 3185 3184 3184 3183 3183 3183 3183 3183 3183 3183 3182 3182 3182 3182 3182 3182 3181 3181 3181 3180 3180 3180 3180 3180 3181 3181 3182 3182 3183 3183 3184 3185
3167 3167 3168 3169 3169 3170 3171 3171 3172 3172 3173 3173 3173 3172 3172 3172 3172 3171 3171 3171 3171 3171 3171 3171 3171 3171 3171 3172 3173 3173 3174 3174 3175 3176 3177 3179 3181 3182 3183 3184 3185 3186 3186 3187 3187 3187 3187 3187 3187 3187 3187 3187 3186 3186 3186 3185 3185 3184 3183 3183 3183 3183 3182 3182 3182 3183 3182 3182 3181 3182 3182 3182 3182 3181 3181 3180 3180 3180 3180 3181 3181 3181 3182 3183 3183 3184 3184 3185
3165 3166 3167 3167 3168 3168 3169 3170 3170 3171 3171 3171 3171 3171 3171 3171 3171 3170 3170 3170 3170 3171 3171 3171 3171 3171 3171 3172 3172 3173 3173 3174 3174 3176 3177 3179 3180 3181 3182 3184 3185 3185 3186 3186 3187 3187 3187 3187 3187 3187 3187 3187 3186 3186 3186 3185 3185 3184 3184 3183 3182 3182 3182 3182 3182 3182 3182 3182 3181 3181 3181 3182 3182 3181 3181 3181 3181 3181 3181 3181 3181 3181 3182 3183 3183 3184 3184 3185
3164 3165 3165 3166 3166 3167 3168 3169 3169 3170 3170 3170 3170 3170 3170 3170 3170 3170 3169 3170 3170 3171 3171 3171 3171 3171 3172 3172 3172 3172 3172 3173 3174 3175 3177 3178 3179 3181 3182 3183 3184 3185 3186 3186 3187 3187 3187 3187 3186 3186 3186 3186 3186 3186 3186 3186 3185 3185 3184 3183 3182 3182 3182 3181 3181 3181 3181 3181 3181 3180 3181 3181 3182 3181 3181 3181 3181 3181 3181 3181 3181 3181 3182 3182 3183 3184 3184 3185
3163 3163 3164 3164 3165 3166 3167 3167 3168 3168 3168 3169 3169 3169 3169 3169 3169 3169 3169 3169 3170 3170 3171 3171 3171 3171 3172 3172 3172 3172 3172 3173 3174 3175 3177 3178 3179 3181 3182 3183 3184 3185 3185 3186 3186 3187 3186 3186 3186 3186 3186 3186 3186 3186 3186 3186 3185 3185 3184 3183 3183 3182 3181 3181 3180 3180 3180 3180 3180 3180 3180 3181 3181 3181 3181 3181 3181 3182 3182 3182 3182 3182 3182 3182 3183 3183 3184 3184
3161 3162 3162 3163 3164 3165 3165 3166 3167 3167 3167 3167 3167 3167 3168 3168 3169 3169 3169 3169 3169 3170 3171 3171 3171 3171 3172 3172 3172 3172 3173 3173 3174 3176 3177 3178 3180 3181 3182 3183 3184 3185 3185 3186 3186 3186 3186 3185 3185 3185 3185 3186 3185 3185 3185 3185 3185 3184 3184 3183 3183 3182 3181 3180 3180 3179 3179 3179 3179 3180 3180 3180 3181 3182 3182 3181 3182 3182 3182 3182 3182 3182 3182 3182 3183 3183 3184 3184
3160 3160 3161 3162 3162 3163 3164 3165 3165 3166 3166 3166 3166 3167 3167 3168 3168 3168 3169 3169 3169 3170 3170 3171 3171 3172 3172 3172 3172 3172 3173 3174 3174 3176 3177 3178 3180 3181 3182 3183 3184 3184 3185 3185 3185 3185 3185 3185 3184 3185 3185 3185 3185 3185 3185 3185 3184 3184 3183 3183 3182 3182 3181 3180 3179 3179 3179 3178 3179 3179 3179 3180 3181 3182 3182 3181 3182 3182 3182 3182 3182 3182 3182 3182 3182 3183 3183 3183
3158 3159 3159 3160 3161 3162 3163 3163 3164 3164 3164 3165 3165 3166 3167 3168 3168 3168 3168 3168 3169 3169 3170 3171 3172 3172 3172 3172 3172 3173 3173 3174 3175 3176 3177 3178 3180 3181 3182 3183 3184 3184 3185 3185 3185 3185 3185 3184 3184 3185 3184 3184 3184 3184 3184 3184 3184 3183 3183 3182 3182 3182 3181 3180 3180 3180 3179 3179 3179 3179 3179 3180 3181 3181 3181 3181 3181 3182 3182 3182 3182 3182 3182 3182 3182 3182 3183 3183
3156 3157 3158 3158 3159 3160 3161 3162 3162 3163 3163 3164 3165 3166 3166 3167 3167 3167 3168 3168 3168 3169 3169 3171 3171 3172 3173 3173 3173 3173 3174 3175 3175 3176 3177 3179 3180 3181 3182 3183 3184 3184 3185 3185 3185 3185 3184 3184 3184 3184 3184 3184 3184 3183 3183 3183 3183 3182 3182 3181 3181 3181 3181 3180 3180 3180 3179 3179 3179 3179 3179 3180 3180 3180 3180 3180 3181 3181 3182 3182 3182 3182 3182 3183 3182 3183 3183 3183
3154 3155 3156 3157 3158 3159 3159 3160 3161 3161 3162 3163 3164 3165 3166 3166 3166 3167 3167 3167 3168 3168 3169 3170 3171 3172 3172 3173 3173 3174 3175 3175 3176 3177 3178 3179 3181 3181 3182 3183 3184 3184 3185 3185 3185 3185 3184 3184 3184 3184 3184 3184 3183 3183 3183 3183 3182 3182 3181 3181 3181 3181 3180 3180 3180 3180 3179 3179 3179 3179 3179 3179 3179 3179 3179 3179 3180 3181 3181 3182 3182 3182 3182 3183 3183 3183 3183 3183
3153 3154 3154 3155 3156 3157 3158 3159 3160 3160 3161 3162 3163 3164 3165 3166 3166 3167 3167 3167 3167 3168 3168 3169 3170 3172 3172 3173 3173 3174 3175 3176 3177 3178 3179 3180 3181 3182 3182 3183 3184 3184 3184 3185 3185 3185 3184 3184 3184 3184 3184 3184 3183 3183 3182 3182 3181 3181 3180 3180 3180 3180 3180 3180 3180 3179 3179 3179 3179 3179 3179 3179 3179 3179 3178 3179 3179 3180 3181 3181 3182 3182 3182 3182 3183 3182 3183 3182
3152 3152 3153 3154 3155 3156 3157 3158 3159 3160 3161 3162 3163 3164 3165 3165 3166 3166 3166 3167 3167 3168 3168 3169 3170 3171 3172 3173 3174 3174 3175 3176 3177 3178 3179 3180 3181 3182 3183 3183 3184 3184 3184 3185 3185 3184 3184 3184 3183 3183 3183 3183 3183 3182 3182 3182 3181 3181 3180 3180 3180 3180 3180 3179 3179 3179 3179 3179 3179 3179 3179 3179 3179 3178 3178 3178 3179 3179 3180 3181 3181 3181 3182 3182 3182 3181 3181 3181
3151 3151 3152 3153 3153 3154 3156 3157 3158 3159 3160 3161 3162 3163 3164 3164 3165 3166 3166 3167 3167 3167 3168 3169 3170 3171 3172 3173 3174 3175 3176 3176 3177 3178 3179 3180 3181 3182 3183 3183 3184 3184 3184 3185 3184 3184 3183 3183 3183 3183 3182 3183 3183 3182 3182 3182 3181 3181 3180 3180 3180 3179 3179 3178 3178 3178 3178 3178 3178 3179 3179 3179 3178 3178 3178 3178 3178 3179 3179 3179 3180 3180 3181 3181 3181 3181 3180 3180
3150 3150 3151 3152 3153 3154 3155 3156 3157 3159 3160 3161 3161 3162 3163 3164 3165 3166 3166 3167 3166 3166 3168 3169 3170 3171 3172 3173 3174 3175 3176 3177 3178 3179 3179 3180 3181 3182 3183 3183 3184 3184 3184 3184 3183 3183 3182 3182 3182 3182 3182 3182 3182 3182 3182 3181 3181 3180 3180 3179 3179 3178 3178 3177 3176 3176 3177 3177 3177 3177 3178 3179 3178 3177 3178 3178 3178 3178 3178 3178 3179 3179 3180 3180 3180 3180 3180 3180
3149 3150 3150 3151 3152 3153 3154 3155 3157 3158 3159 3160 3161 3162 3162 3163 3165 3165 3166 3166 3165 3166 3167 3168 3170 3170 3171 3172 3173 3174 3175 3177 3178 3179 3179 3180 3181 3182 3182 3183 3183 3183 3184 3183 3183 3182 3181 3181 3181 3181 3181 3182 3182 3182 3182 3181 3181 3180 3179 3178 3178 3177 3177 3176 3175 3175 3176 3176 3177 3177 3177 3178 3177 3177 3177 3177 3177 3177 3177 3178 3178 3179 3179 3179 3180 3180 3180 3180
3149 3149 3150 3150 3151 3153 3154 3155 3156 3157 3158 3159 3160 3161 3162 3163 3164 3165 3166 3165 3164 3165 3166 3168 3169 3170 3171 3172 3173 3174 3175 3176 3177 3178 3179 3180 3181 3181 3182 3182 3182 3183 3183 3183 3182 3181 3180 3179 3179 3179 3180 3181 3181 3181 3181 3181 3180 3180 3179 3178 3177 3177 3176 3175 3175 3175 3176 3176 3176 3176 3176 3177 3177 3176 3176 3176 3176 3177 3177 3177 3177 3178 3178 3179 3179 3179 3180 3180
3148 3149 3149 3150 3151 3152 3153 3155 3156 3157 3158 3158 3159 3160 3162 3163 3164 3164 3164 3164 3164 3165 3166 3167 3168 3169 3170 3171 3172 3173 3174 3175 3176 3178 3179 3179 3180 3181 3181 3181 3182 3182 3182 3182 3181 3181 3179 3178 3177 3178 3179 3180 3180 3180 3180 3180 3180 3179 3178 3177 3177 3176 3176 3175 3174 3175 3176 3176 3176 3176 3176 3176 3176 3175 3175 3175 3176 3176 3177 3177 3177 3177 3177 3178 3178 3178 3179 3179
3148 3148 3149 3149 3150 3152 3153 3154 3155 3156 3157 3158 3159 3160 3162 3163 3164 3163 3163 3163 3164 3164 3166 3167 3167 3168 3170 3171 3172 3173 3174 3175 3176 3177 3178 3179 3179 3180 3180 3181 3181 3181 3181 3181 3181 3181 3180 3178 3178 3178 3179 3179 3180 3180 3180 3180 3179 3179 3178 3177 3176 3176 3176 3176 3176 3176 3176 3176 3175 3175 3175 3175 3175 3175 3175 3175 3175 3176 3176 3176 3176 3176 3176 3177 3177 3177 3178 3178
3147 3148 3148 3149 3150 3151 3152 3154 3155 3155 3156 3158 3159 3160 3161 3163 3163 3162 3162 3163 3164 3164 3165 3166 3167 3168 3170 3171 3172 3173 3174 3175 3175 3176 3177 3178 3179 3179 3180 3180 3180 3180 3180 3180 3180 3180 3180 3179 3179 3179 3179 3179 3179 3179 3179 3179 3178 3178 3177 3177 3176 3177 3179 3179 3179 3178 3177 3175 3175 3175 3175 3175 3174 3174 3174 3175 3175 3176 3176 3176 3175 3175 3175 3176 3176 3176 3176 3176
3147 3147 3148 3149 3150 3151 3152 3153 3154 3155 3156 3157 3158 3160 3161 3162 3162 3162 3163 3163 3164 3164 3165 3166 3167 3168 3169 3170 3171 3172 3173 3174 3175 3176 3177 3177 3178 3178 3179 3179 3179 3179 3179 3179 3180 3180 3180 3179 3179 3179 3179 3179 3179 3178 3178 3178 3177 3177 3177 3176 3175 3176 3177 3178 3177 3176 3175 3175 3175 3175 3175 3174 3174 3174 3174 3174 3175 3175 3175 3175 3175 3175 3175 3175 3175 3175 3175 3175
3146 3147 3147 3148 3149 3150 3151 3152 3153 3155 3156 3157 3158 3160 3161 3161 3161 3162 3162 3163 3163 3163 3164 3165 3167 3168 3168 3169 3170 3171 3172 3173 3174 3175 3176 3176 3177 3177 3178 3178 3177 3178 3178 3178 3179 3179 3179 3178 3178 3178 3178 3178 3178 3177 3177 3177 3176 3176 3176 3175 3175 3174 3174 3175 3175 3174 3174 3175 3175 3175 3174 3173 3173 3174 3173 3173 3174 3174 3174 3174 3174 3174 3174 3174 3174 3174 3174 3173
3146 3146 3147 3148 3149 3150 3151 3152 3153 3154 3156 3157 3158 3159 3160 3161 3161 3162 3162 3162 3162 3162 3163 3164 3166 3167 3168 3168 3169 3170 3171 3172 3173 3174 3174 3175 3176 3176 3177 3177 3177 3177 3177 3178 3178 3178 3178 3177 3178 3177 3177 3177 3176 3176 3176 3176 3175 3175 3174 3174 3174 3173 3173 3173 3173 3173 3174 3174 3174 3174 3173 3173 3173 3173 3173 3173 3173 3173 3173 3173 3173 3173 3173 3173 3172 3172 3172 3172
3146 3146 3147 3148 3148 3149 3150 3151 3153 3154 3155 3157 3157 3158 3159 3160 3161 3161 3161 3161 3161 3162 3162 3163 3165 3166 3166 3167 3168 3168 3169 3170 3172 3172 3173 3174 3175 3175 3176 3176 3176 3176 3177 3177 3177 3177 3177 3176 3177 3177 3176 3176 3176 3175 3175 3175 3174 3173 3173 3173 3173 3172 3172 3172 3172 3173 3174 3174 3173 3172 3172 3172 3172 3172 3171 3172 3172 3171 3172 3172 3172 3172 3172 3171 3171 3171 3170 3169
3146 3146 3147 3147 3148 3149 3150 3151 3152 3153 3155 3156 3157 3158 3159 3160 3160 3160 3160 3160 3161 3161 3162 3163 3164 3165 3165 3166 3166 3166 3167 3168 3170 3171 3172 3173 3173 3174 3174 3175 3176 3176 3176 3176 3176 3176 3176 3176 3175 3175 3175 3175 3174 3174 3173 3173 3173 3172 3171 3171 3171 3171 3171 3171 3171 3172 3173 3175 3173 3171 3171 3171 3170 3170 3170 3170 3170 3170 3170 3170 3170 3170 3170 3169 3169 3168 3167 3167
3147 3147 3147 3147 3148 3149 3149 3151 3152 3153 3154 3155 3156 3158 3159 3159 3160 3160 3160 3160 3161 3161 3162 3162 3163 3164 3165 3165 3165 3165 3166 3167 3168 3169 3170 3171 3172 3173 3173 3174 3175 3175 3175 3176 3176 3176 3176 3175 3174 3174 3174 3173 3172 3171 3171 3171 3171 3170 3170 3170 3170 3170 3169 3169 3170 3169 3170 3173 3174 3172 3171 3169 3168 3168 3169 3170 3170 3169 3169 3169 3169 3168 3168 3167 3166 3166 3165 3164
3148 3148 3147 3147 3148 3148 3149 3150 3151 3152 3154 3154 3156 3157 3158 3159 3159 3160 3160 3160 3160 3161 3162 3162 3163 3164 3164 3165 3165 3165 3165 3166 3167 3168 3169 3170 3171 3172 3173 3174 3174 3174 3175 3175 3175 3175 3175 3174 3173 3172 3172 3172 3171 3170 3169 3169 3169 3169 3169 3169 3168 3168 3168 3168 3169 3168 3168 3170 3172 3172 3170 3168 3166 3167 3168 3168 3168 3167 3167 3167 3167 3166 3166 3165 3164 3163 3162 3161
3148 3148 3148 3147 3148 3148 3149 3149 3150 3152 3153 3154 3155 3156 3157 3158 3159 3159 3159 3159 3160 3161 3162 3163 3163 3163 3164 3165 3165 3165 3165 3166 3167 3168 3168 3169 3170 3171 3172 3173 3173 3174 3174 3174 3174 3174 3174 3173 3172 3171 3170 3170 3169 3169 3168 3168 3168 3168 3168 3168 3167 3167 3167 3167 3168 3168 3168 3168 3168 3169 3168 3166 3166 3166 3166 3166 3166 3166 3166 3165 3165 3164 3164 3163 3162 3161 3159 3158
3149 3148 3148 3148 3148 3148 3149 3149 3150 3151 3152 3153 3154 3154 3156 3157 3158 3159 3159 3159 3160 3161 3162 3162 3163 3163 3164 3164 3165 3165 3166 3166 3167 3167 3168 3169 3169 3170 3171 3172 3172 3173 3173 3173 3173 3173 3173 3172 3170 3169 3168 3167 3167 3167 3167 3167 3167 3167 3167 3167 3167 3167 3167 3167 3167 3167 3167 3167 3166 3167 3166 3164 3165 3165 3165 3164 3164 3164 3164 3163 3163 3162 3161 3161 3160 3158 3157 3155
3149 3149 3149 3148 3148 3148 3149 3149 3149 3150 3151 3151 3152 3153 3155 3156 3157 3158 3159 3159 3160 3161 3161 3162 3162 3163 3163 3163 3164 3165 3166 3166 3166 3167 3167 3168 3169 3170 3171 3171 3171 3172 3172 3172 3172 3171 3171 3170 3169 3168 3167 3166 3165 3165 3166 3166 3166 3167 3167 3166 3166 3166 3166 3166 3166 3166 3166 3165 3165 3165 3164 3163 3163 3163 3163 3163 3163 3162 3162 3162 3161 3160 3159 3158 3157 3155 3154 3152
3149 3149 3149 3149 3149 3149 3149 3149 3149 3149 3150 3150 3151 3153 3154 3155 3156 3157 3158 3159 3159 3160 3161 3161 3161 3162 3162 3163 3164 3165 3165 3166 3166 3166 3167 3168 3169 3169 3170 3170 3170 3170 3171 3171 3170 3170 3169 3168 3168 3167 3167 3167 3167 3166 3166 3166 3166 3166 3166 3166 3166 3166 3166 3166 3165 3165 3165 3164 3164 3164 3163 3162 3162 3162 3162 3162 3162 3161 3161 3160 3159 3158 3156 3155 3153 3152 3151 3149
3149 3149 3149 3149 3149 3149 3149 3149 3149 3149 3149 3150 3151 3152 3153 3154 3155 3156 3157 3158 3158 3159 3160 3160 3161 3161 3162 3162 3163 3164 3164 3165 3166 3166 3166 3167 3168 3168 3168 3168 3169 3169 3169 3169 3169 3168 3168 3167 3167 3166 3166 3167 3167 3166 3165 3165 3165 3165 3165 3165 3165 3165 3165 3165 3164 3164 3163 3163 3163 3162 3161 3161 3161 3161 3160 3160 3160 3159 3158 3157 3156 3154 3153 3151 3150 3149 3148 3146
3149 3149 3149 3149 3149 3149 3149 3149 3149 3148 3149 3149 3151 3152 3153 3153 3154 3155 3156 3157 3158 3158 3159 3160 3160 3161 3161 3162 3163 3163 3164 3164 3165 3165 3166 3166 3167 3167 3167 3167 3167 3167 3168 3167 3167 3167 3167 3167 3166 3166 3165 3165 3165 3165 3165 3165 3165 3164 3164 3164 3164 3164 3164 3163 3163 3163 3162 3162 3162 3161 3160 3160 3159 3159 3159 3158 3157 3156 3155 3154 3153 3151 3150 3148 3147 3146 3145 3143
3149 3149 3149 3149 3149 3149 3149 3148 3148 3148 3148 3149 3150 3151 3152 3152 3153 3154 3155 3156 3157 3158 3158 3159 3160 3161 3161 3161 3162 3163 3163 3164 3164 3164 3165 3165 3165 3166 3166 3166 3166 3166 3166 3166 3166 3166 3166 3166 3166 3165 3165 3164 3164 3164 3164 3164 3164 3164 3164 3163 3163 3163 3163 3162 3162 3162 3161 3161 3160 3160 3159 3158 3158 3158 3157 3156 3155 3154 3153 3152 3150 3148 3147 3145 3144 3143 3141 3139
3148 3149 3149 3149 3149 3149 3148 3148 3148 3148 3148 3148 3149 3150 3150 3151 3152 3153 3154 3155 3156 3157 3158 3159 3159 3160 3160 3161 3162 3163 3163 3164 3164 3164 3164 3165 3165 3165 3165 3165 3165 3165 3165 3165 3165 3165 3165 3165 3165 3165 3164 3164 3164 3164 3164 3163 3163 3163 3163 3163 3162 3162 3162 3162 3161 3160 3160 3160 3159 3158 3158 3157 3156 3156 3155 3154 3153 3152 3150 3149 3147 3145 3144 3142 3141 3139 3138 3136
3147 3148 3148 3148 3148 3148 3148 3148 3148 3147 3147 3147 3148 3149 3149 3150 3151 3152 3153 3154 3155 3156 3157 3158 3159 3159 3160 3161 3162 3162 3163 3163 3164 3164 3164 3164 3164 3164 3164 3164 3164 3164 3164 3164 3164 3164 3164 3164 3164 3164 3164 3163 3163 3163 3163 3162 3162 3162 3162 3162 3162 3161 3161 3160 3160 3159 3159 3158 3157 3157 3156 3155 3154 3154 3153 3152 3150 3149 3148 3146 3144 3143 3141 3139 3138 3136 3135 3133
3146 3147 3147 3148 3148 3148 3148 3148 3148 3147 3147 3147 3147 3148 3149 3149 3150 3151 3152 3153 3155 3156 3157 3158 3158 3159 3160 3160 3161 3162 3162 3163 3163 3163 3163 3163 3163 3163 3163 3163 3162 3163 3163 3163 3163 3163 3163 3163 3163 3163 3163 3162 3162 3162 3162 3162 3161 3161 3161 3161 3161 3160 3160 3159 3159 3158 3157 3157 3156 3155 3154 3154 3153 3152 3151 3150 3148 3147 3145 3144 3142 3140 3138 3136 3135 3133 3132 3130
3145 3146 3146 3147 3147 3147 3147 3147 3147 3147 3147 3147 3147 3147 3148 3148 3149 3150 3152 3153 3154 3155 3156 3157 3158 3158 3159 3160 3160 3161 3161 3161 3161 3162 3162 3162 3162 3161 3161 3161 3161 3161 3161 3161 3161 3161 3161 3162 3162 3162 3162 3161 3161 3161 3161 3161 3160 3160 3159 3159 3159 3159 3158 3158 3157 3157 3156 3155 3155 3154 3153 3152 3151 3150 3149 3148 3146 3145 3143 3141 3138 3137 3135 3133 3131 3130 3129 3126
3144 3144 3145 3146 3146 3146 3146 3147 3147 3147 3146 3146 3146 3146 3147 3148 3149 3150 3151 3152 3153 3154 3155 3156 3157 3158 3158 3159 3159 3159 3159 3160 3160 3160 3160 3160 3160 3159 3159 3159 3159 3159 3159 3159 3159 3160 3160 3161 3161 3161 3161 3160 3160 3160 3160 3160 3159 3158 3157 3157 3157 3157 3157 3156 3156 3155 3155 3154 3153 3152 3150 3149 3148 3147 3146 3145 3144 3142 3140 3138 3135 3133 3132 3130 3129 3127 3126 3124